RH
37 36 35 34 29 28 30 29 29 30 26 25 27 27 26 24 23 23 25 26 26 24 28 33 35 37 35 38 41 44 50 45 44 48 51 45 41 41 38 35 32 35 28 21 22 20 20 20 20 20 21 26 28 28 23 24 30 31 32 31 30 30 32 33 31 30 30 31 33 34 33 36 38 39 37 31 24 22 26 31 36 38 39 39 39 40 37 31 29 30 30 29 25 19 17 17 17
35 36 37 37 35 31 31 29 32 36 30 27 30 30 27 26 25 22 24 26 24 24 26 31 32 32 32 33 34 39 42 38 39 43 45 43 42 41 38 35 33 37 31 22 23 22 22 21 21 20 22 26 29 30 24 24 29 31 32 32 31 30 32 34 35 33 31 31 32 32 33 35 38 39 37 33 25 24 28 34 38 37 37 39 40 40 36 33 31 29 29 28 24 19 16 16 17
31 32 33 35 36 34 32 30 33 37 32 29 31 32 29 28 26 24 26 26 25 26 27 29 31 32 31 32 35 39 41 40 40 40 42 42 42 42 38 36 33 37 32 23 23 23 22 23 22 20 22 25 29 31 26 24 28 31 32 33 32 32 32 34 37 36 32 31 32 32 33 35 38 37 36 33 26 24 30 36 38 37 38 39 39 37 35 34 32 31 30 28 23 18 17 17 18
30 30 31 31 33 34 33 31 32 33 32 31 33 33 32 30 26 26 27 26 24 25 28 28 29 32 32 32 34 38 42 43 41 38 41 40 42 43 40 38 35 37 34 25 24 24 22 22 22 21 22 25 29 31 28 24 27 30 32 33 32 33 33 34 37 36 34 32 32 33 33 35 37 36 35 32 26 25 30 35 37 37 37 37 36 33 34 33 33 32 29 26 22 19 18 19 19
30 30 30 29 30 32 32 32 31 32 32 32 32 33 33 31 28 29 28 27 26 25 26 27 28 28 30 32 33 38 43 44 40 37 40 42 43 44 42 41 37 37 36 30 27 25 23 23 22 21 22 24 28 31 29 25 27 30 31 33 32 33 34 35 36 37 37 34 32 34 34 34 36 36 34 32 27 26 30 34 35 35 35 33 33 32 32 31 31 29 27 26 22 21 21 21 21
31 30 29 29 29 31 31 32 33 33 34 33 33 33 35 34 31 32 29 28 29 27 26 26 28 26 29 35 35 37 39 39 41 39 41 43 44 45 43 42 38 37 37 36 36 30 23 23 22 21 22 23 27 30 29 26 27 29 30 32 32 34 36 36 36 37 38 37 34 35 36 34 35 35 35 35 31 29 29 33 34 34 34 33 32 30 28 28 27 26 27 26 23 23 23 24 23
32 31 30 30 29 30 31 30 31 32 32 33 35 35 33 31 31 34 31 29 28 28 28 26 27 26 28 35 38 40 34 33 38 39 40 42 44 44 43 41 39 37 37 40 44 34 24 23 22 20 22 24 27 30 30 27 27 27 29 31 32 34 37 37 37 38 38 39 37 36 38 35 33 34 35 35 32 29 28 29 32 33 33 32 32 29 27 25 25 25 27 26 24 25 26 26 24
33 32 31 32 31 30 31 29 29 30 30 30 33 34 30 28 31 34 32 30 29 28 28 26 27 26 28 32 38 42 36 32 36 38 39 42 44 43 41 40 40 39 39 42 44 35 26 24 21 20 22 24 28 29 30 28 28 28 28 29 32 35 37 38 38 38 38 39 39 37 39 36 33 34 34 34 30 27 26 27 31 33 32 32 31 29 27 25 25 25 26 26 25 26 29 29 26
34 33 32 32 32 31 31 30 29 28 30 29 29 31 31 31 32 33 31 29 28 29 28 26 27 26 28 30 36 43 39 36 36 37 41 44 44 44 42 41 42 41 39 40 41 35 29 25 22 21 23 26 28 30 31 29 29 30 30 30 33 36 38 40 39 39 39 39 40 38 39 37 34 35 34 32 29 26 26 26 30 33 32 31 31 30 28 27 26 26 26 25 25 27 31 31 28
34 33 33 33 33 31 31 31 31 29 29 30 29 30 32 33 33 31 30 27 26 28 28 27 26 27 28 28 39 46 40 37 38 39 42 45 44 45 44 41 43 41 39 39 39 36 31 27 23 21 24 26 27 30 31 30 32 34 34 34 36 38 39 40 39 39 39 38 39 39 39 38 35 33 31 31 29 25 25 25 28 33 32 31 30 29 29 28 28 28 27 26 26 28 32 32 30
34 34 33 33 33 32 31 30 31 31 30 30 30 31 31 32 33 30 30 27 25 26 25 27 27 30 29 28 42 47 37 35 39 40 42 44 44 47 46 42 43 42 41 40 38 34 30 27 25 24 25 26 27 29 31 31 34 37 37 36 37 38 39 39 39 39 39 38 39 39 40 40 36 28 24 28 29 25 25 25 26 31 32 31 29 28 29 29 30 30 29 29 29 30 32 32 31
32 33 33 33 33 31 31 30 30 31 30 31 30 31 31 31 32 30 30 27 25 25 24 25 26 29 28 30 46 45 35 35 40 41 41 43 44 47 47 42 43 45 44 41 37 33 29 27 26 27 28 27 26 28 31 33 36 37 37 37 37 38 38 38 38 40 40 39 39 40 39 38 33 25 20 23 26 25 25 25 25 29 31 31 30 29 28 29 29 30 31 31 32 34 34 33 31
30 31 33 32 31 30 30 30 31 30 29 31 29 31 33 30 30 29 29 27 26 25 24 25 26 28 25 32 46 43 35 35 37 40 39 40 42 45 44 40 43 47 44 40 37 35 33 33 34 34 32 30 29 29 31 33 36 36 36 37 37 38 39 39 40 41 41 41 40 40 37 36 33 26 20 20 24 25 25 24 24 27 30 31 30 30 29 28 29 30 30 31 33 35 35 33 31
28 29 31 30 30 30 29 28 30 30 30 30 29 30 33 30 29 28 28 28 26 24 26 26 26 25 25 31 41 41 36 33 34 37 37 38 39 41 40 38 43 46 43 38 37 37 38 41 44 44 40 38 38 34 31 32 35 36 37 36 37 38 39 40 41 42 43 42 39 38 36 35 34 27 19 20 23 26 26 23 23 25 28 30 31 30 30 29 28 29 30 31 32 33 33 32 31
28 28 30 29 29 30 28 27 28 29 29 30 29 29 31 29 29 29 27 28 27 27 30 29 26 25 27 33 41 45 39 32 34 36 36 37 37 38 37 38 42 44 41 38 37 36 39 42 45 48 47 48 46 39 34 33 34 38 40 36 37 38 39 41 42 43 44 41 38 37 36 35 35 28 20 19 23 26 26 24 23 24 26 29 30 31 31 29 28 28 29 30 31 32 32 32 31
27 28 29 28 28 28 25 26 26 27 28 28 29 29 30 29 28 29 26 26 26 29 32 31 32 29 28 33 40 45 38 30 32 35 36 35 36 36 36 38 40 40 40 39 37 35 37 39 42 47 50 51 51 45 37 36 35 39 42 37 37 39 40 41 43 45 43 40 38 37 35 33 33 28 19 19 22 26 27 24 24 23 25 27 28 30 30 29 28 27 28 29 31 31 31 30 30
27 28 29 27 26 25 24 25 25 27 27 27 28 28 30 28 27 27 25 26 26 28 31 33 35 31 29 33 37 39 34 29 31 36 36 35 35 36 36 37 36 37 39 39 37 35 35 37 41 46 50 52 53 50 44 41 38 40 41 35 37 39 39 41 43 43 41 39 38 34 33 34 35 29 20 19 22 27 28 25 24 24 24 25 27 28 29 29 28 27 27 27 28 28 27 26 25
27 28 27 26 25 24 24 24 24 27 28 27 29 28 29 28 25 25 24 26 27 27 32 35 34 32 30 31 34 36 31 28 32 37 36 35 35 35 35 34 34 36 38 37 37 35 35 38 41 46 50 51 52 52 52 49 41 39 39 35 37 39 39 41 42 42 41 38 34 34 35 37 40 33 22 19 22 27 28 27 26 25 25 25 26 27 28 28 27 26 26 25 24 23 22 21 23
26 26 26 25 24 24 24 24 23 25 27 27 29 28 29 29 24 24 23 25 26 26 29 32 33 33 32 31 33 35 32 30 33 38 37 35 35 34 33 33 34 36 36 37 38 38 38 39 42 46 49 50 50 52 56 56 44 37 38 36 37 40 42 42 43 44 43 40 37 38 39 39 42 34 22 21 23 27 29 28 27 26 25 25 25 27 27 28 28 26 25 23 20 22 24 26 30
25 26 25 23 23 24 23 24 23 24 26 27 29 28 28 28 23 22 22 24 27 28 30 32 34 36 37 35 34 34 34 34 35 38 37 35 34 33 33 33 34 36 37 39 40 42 41 42 44 47 50 50 51 53 57 57 45 37 38 38 39 43 46 46 47 47 46 43 38 39 39 38 38 28 19 20 23 27 31 29 29 27 25 25 25 25 26 27 27 26 26 23 24 29 33 33 34
24 24 22 20 23 24 23 23 23 24 25 26 28 28 28 28 24 21 21 24 26 28 29 31 33 36 40 40 36 35 36 35 38 40 37 34 33 32 32 33 33 35 38 40 42 44 43 44 46 49 52 51 51 54 59 58 46 40 43 42 46 52 52 53 53 51 49 39 35 40 38 37 39 31 24 28 33 33 31 29 29 27 26 25 24 25 29 30 31 34 35 31 33 36 36 35 33
20 21 19 18 21 23 23 23 23 23 24 25 25 27 30 29 24 21 21 22 24 26 24 24 27 32 39 42 37 35 36 37 39 40 38 35 33 32 33 33 34 36 38 39 42 45 45 46 48 52 54 51 52 54 56 57 48 43 47 48 53 59 58 60 59 57 52 37 36 44 36 34 46 43 33 37 43 41 37 35 35 35 35 31 27 34 41 41 42 43 41 37 37 37 37 38 37
16 16 15 15 18 21 22 23 23 23 23 23 23 26 29 27 22 21 22 20 22 25 22 24 30 33 39 42 36 35 37 38 40 41 39 37 35 33 34 34 35 37 38 38 42 46 47 47 50 53 53 50 52 52 51 52 49 46 50 52 56 60 59 62 63 60 53 40 39 43 37 40 50 49 40 40 45 47 45 44 43 44 46 41 38 43 45 46 48 45 41 39 39 41 43 44 42
15 14 13 13 15 19 22 22 23 24 24 22 24 29 28 23 21 21 22 21 22 23 21 25 35 37 38 38 35 36 38 38 39 41 40 39 37 35 35 36 36 38 37 38 42 46 47 47 47 49 51 48 49 52 48 47 48 50 53 55 58 60 59 61 64 62 53 46 43 44 46 50 54 53 47 46 50 51 50 47 46 47 49 47 46 48 48 50 52 50 47 45 44 46 47 47 46
15 13 12 12 12 15 19 21 23 23 23 23 26 30 26 21 22 21 21 22 22 22 21 26 35 36 33 33 35 37 38 39 39 40 40 40 39 37 37 37 38 38 37 38 42 46 46 46 44 44 47 48 49 50 48 46 48 50 51 53 57 59 59 61 63 59 53 53 53 51 52 51 55 55 49 51 56 56 54 53 52 53 53 52 51 53 53 55 57 56 53 49 47 47 48 48 47
15 14 13 12 12 14 17 18 20 22 22 23 24 25 23 21 22 21 21 22 22 22 23 30 36 34 30 31 36 37 38 39 38 40 41 40 40 39 38 39 38 38 38 38 41 45 46 45 43 42 45 49 50 49 48 48 45 47 51 51 55 56 57 60 60 56 54 58 60 58 55 52 54 54 51 55 58 57 57 56 58 60 58 56 56 55 55 57 57 58 56 54 51 49 49 48 47
15 14 13 13 13 14 16 16 17 20 22 23 22 21 20 21 21 20 20 20 22 23 27 35 36 33 32 32 36 37 38 39 38 41 42 41 41 40 39 40 39 38 39 38 40 44 45 44 41 40 45 49 50 47 49 50 41 43 50 51 53 55 56 58 58 57 58 62 64 61 59 55 53 53 54 57 59 59 59 59 61 63 61 59 58 56 56 57 56 57 56 55 53 52 51 49 47
16 17 17 15 15 15 15 16 16 16 18 19 19 18 18 19 19 16 18 20 21 23 29 38 37 33 33 32 35 38 38 38 37 40 43 42 41 40 40 41 40 38 38 39 40 42 43 42 39 37 41 49 51 45 45 47 41 42 48 50 52 54 55 56 57 58 59 63 64 63 62 56 53 53 53 57 62 62 62 63 63 64 63 61 60 58 57 56 56 56 53 52 54 55 54 51 47
17 19 18 16 15 15 15 17 16 14 14 15 16 16 15 15 14 13 17 20 21 23 30 39 37 30 30 33 35 36 37 37 36 39 41 41 41 39 39 40 39 38 39 40 40 41 41 41 39 36 40 48 48 44 43 45 45 46 47 49 51 53 54 54 55 56 58 63 66 64 63 58 54 54 53 58 63 64 64 64 64 64 64 65 62 59 57 56 57 55 52 54 57 58 58 54 49
18 17 18 16 16 14 14 17 16 13 13 14 14 14 12 9 9 11 16 18 19 23 29 34 34 26 27 35 36 34 35 36 36 38 40 40 39 37 38 39 38 37 38 40 39 40 40 39 38 38 41 47 45 43 45 48 51 50 49 51 52 52 53 53 55 55 59 66 68 64 62 60 58 57 57 60 63 65 65 64 65 67 69 71 66 60 61 60 58 57 56 58 59 57 56 53 48
18 18 18 17 16 13 13 16 16 14 13 13 13 12 10 8 8 9 13 15 16 22 26 28 30 26 23 33 37 34 34 36 36 38 40 41 38 35 35 37 37 37 38 40 39 39 40 39 40 42 43 46 45 44 44 48 52 52 53 55 53 52 53 54 56 59 64 68 70 67 62 62 61 59 61 64 66 65 67 69 70 68 72 78 72 65 65 63 60 60 57 59 59 54 50 50 48
20 20 20 18 14 13 14 16 15 14 13 13 14 13 9 8 8 8 11 12 14 20 24 22 26 27 23 27 33 34 34 35 36 38 39 39 35 33 35 35 35 37 37 39 41 39 39 39 41 44 46 47 48 47 46 46 50 51 53 55 54 54 55 57 61 65 69 71 72 70 66 64 64 62 64 69 69 67 73 77 72 67 71 80 76 69 67 65 62 60 57 58 57 50 44 48 50
24 21 20 17 13 12 15 17 15 13 14 14 14 11 10 9 9 9 11 11 13 18 22 18 20 27 28 26 29 33 34 34 35 38 37 36 33 33 34 34 35 38 37 37 41 40 40 41 43 47 50 49 46 48 49 48 49 48 48 53 55 55 58 64 69 70 73 74 72 73 72 67 65 64 66 71 71 70 74 73 70 69 72 78 75 70 69 67 63 60 60 56 49 43 43 49 52
28 22 17 16 15 13 13 15 16 16 14 14 13 11 11 10 9 10 11 13 15 18 20 16 16 22 26 25 27 31 32 32 34 36 35 32 32 32 33 33 35 38 36 37 41 42 42 43 45 49 52 48 43 45 49 48 48 46 47 53 56 58 64 70 72 72 73 73 71 74 76 71 68 67 70 75 74 74 74 69 70 75 76 79 77 71 70 67 62 62 63 57 44 39 45 51 52
29 25 18 16 16 16 13 12 15 18 15 13 14 13 11 10 10 10 11 13 17 21 20 15 15 19 23 23 24 28 32 34 34 35 34 31 31 32 33 33 36 37 37 39 43 43 44 44 45 50 52 47 42 43 45 45 45 46 51 58 60 62 67 68 68 69 69 69 70 73 75 73 71 70 73 76 73 73 74 69 74 82 82 81 77 72 71 67 64 64 62 55 46 42 44 48 48
29 28 23 21 19 17 15 11 13 18 17 13 13 14 12 11 11 11 12 15 19 24 22 16 15 18 24 27 24 26 31 35 37 33 32 31 31 33 34 34 36 37 38 40 43 43 43 44 46 49 50 45 41 41 42 46 49 53 58 62 63 65 65 63 63 65 65 66 69 71 73 73 72 73 76 76 72 73 74 72 78 85 84 80 74 71 71 69 67 63 52 45 48 49 46 43 42
30 30 28 25 21 16 15 13 12 16 19 15 12 14 14 12 10 11 18 25 26 27 23 17 16 17 24 28 25 25 28 35 40 35 30 32 33 34 34 35 36 36 38 41 42 43 42 44 47 48 48 45 42 44 47 52 58 63 67 67 67 70 67 63 63 64 64 65 67 70 72 71 71 73 75 74 74 76 77 77 81 83 80 78 75 72 70 66 61 56 49 45 48 51 47 38 33
32 30 31 29 25 18 16 15 13 15 20 17 13 14 15 13 11 10 20 31 30 27 23 17 17 18 21 26 24 25 28 34 41 37 31 33 35 35 35 35 36 37 39 41 42 43 43 44 47 47 49 49 47 50 55 59 63 67 69 68 71 75 71 68 68 67 64 65 68 72 73 71 71 74 75 75 77 80 82 83 82 80 78 76 74 71 66 57 51 51 52 53 52 47 41 31 27
33 34 37 35 30 22 19 18 14 14 19 18 15 15 14 14 13 11 16 26 27 23 21 16 16 19 20 23 24 24 30 36 39 38 33 34 36 35 35 35 37 38 39 41 42 43 44 46 47 49 51 53 52 53 56 59 62 66 68 68 70 74 71 71 72 68 66 68 71 74 75 74 76 79 78 78 80 83 86 85 81 79 78 76 73 70 62 52 47 50 54 55 54 45 34 27 28
33 38 38 33 32 28 21 20 16 15 19 17 15 15 14 13 14 13 14 22 26 23 20 16 16 20 20 21 24 25 32 38 40 39 33 33 36 35 35 36 37 38 39 40 42 44 46 48 51 53 54 54 53 53 54 59 63 65 66 66 69 71 72 70 69 68 69 72 75 76 76 77 80 81 79 80 83 85 86 84 81 80 77 75 73 68 59 51 46 48 52 53 52 45 34 27 30
33 38 35 29 33 32 24 24 22 18 19 17 14 15 14 13 14 14 13 20 28 25 22 19 17 21 22 25 33 34 34 35 37 37 32 32 34 33 36 37 38 37 37 39 43 46 49 51 54 56 54 53 52 51 55 61 64 65 65 66 67 69 71 70 69 70 70 73 77 78 77 78 81 81 80 81 85 87 86 83 81 78 76 76 73 63 53 49 46 46 48 47 45 43 38 30 30
34 35 33 29 33 36 30 31 29 22 20 17 13 14 14 13 13 14 13 17 25 26 23 20 19 21 23 30 39 40 35 33 35 34 29 32 34 33 37 38 37 38 38 41 44 47 50 52 55 56 52 52 53 55 59 63 64 64 64 67 70 71 73 73 72 72 73 75 78 78 78 80 81 82 82 84 87 87 85 82 80 80 80 74 64 55 49 46 46 44 41 37 35 38 40 37 33
34 32 32 30 33 38 34 33 32 23 19 16 14 13 15 15 13 14 15 15 20 27 25 20 21 21 24 30 33 36 35 32 37 36 29 30 33 33 36 38 38 38 39 42 47 50 53 55 56 55 53 53 57 61 63 63 64 64 64 69 74 75 76 75 74 73 74 76 77 78 80 80 81 82 83 85 88 87 83 81 80 80 77 65 52 49 48 46 44 39 34 32 31 32 39 43 39
34 31 33 33 35 39 36 31 31 25 20 19 16 12 15 20 16 13 15 15 19 28 27 22 22 22 29 33 27 31 35 33 36 35 28 29 31 32 35 37 39 40 42 46 50 55 57 57 55 53 55 56 59 65 68 67 67 67 68 70 72 75 77 75 74 73 72 73 75 78 79 80 81 84 86 87 87 85 82 80 78 74 68 58 51 49 47 44 39 35 32 32 33 32 35 39 38
32 33 34 34 36 38 38 34 32 29 27 26 19 12 15 20 18 15 15 16 19 25 26 24 23 23 34 36 27 28 32 32 35 31 26 28 30 32 36 38 40 42 45 48 52 57 59 58 56 55 58 59 58 64 71 71 70 68 66 65 66 71 76 74 73 72 72 75 77 79 81 82 84 87 88 88 87 84 81 79 73 65 58 53 51 48 45 40 35 34 33 33 32 33 34 34 33
30 38 41 37 34 33 36 36 32 31 32 30 22 14 14 16 17 17 17 15 17 23 25 24 22 23 32 35 29 28 29 33 36 30 27 29 29 32 35 38 40 43 47 48 53 60 63 63 61 58 60 63 62 63 68 68 65 62 61 63 64 67 71 71 71 72 75 78 79 81 83 86 88 90 90 89 86 83 79 75 67 58 55 53 50 47 43 39 35 34 33 32 33 34 34 33 31
32 40 43 39 34 32 37 36 29 31 34 31 24 18 14 15 15 16 17 15 16 24 28 26 22 22 28 30 29 29 30 32 31 28 29 28 29 32 34 37 40 43 46 47 52 61 62 62 63 62 65 68 67 67 67 67 65 61 60 63 65 65 68 70 71 74 77 79 81 80 81 86 90 92 91 88 85 81 77 72 65 60 58 53 48 45 41 39 36 34 33 34 36 35 33 32 29
36 39 41 42 38 37 41 37 32 34 34 27 21 19 17 15 14 14 17 17 18 25 27 24 23 23 27 28 27 28 30 29 26 26 30 29 30 32 33 37 40 42 45 45 50 55 55 58 62 64 69 70 69 70 71 70 67 64 63 64 66 68 71 72 73 76 79 80 82 81 82 88 91 93 93 90 87 84 77 69 63 59 55 49 44 41 39 37 35 34 36 37 37 35 33 30 26
37 38 41 45 44 44 45 41 37 34 28 22 19 21 20 15 13 15 20 22 22 26 27 25 24 23 26 26 25 30 30 26 26 27 29 29 30 32 33 36 40 42 44 45 48 52 55 58 60 61 66 68 68 71 72 71 68 67 69 70 70 72 73 71 69 72 78 82 83 83 85 90 93 94 92 89 86 80 71 65 60 54 50 45 41 39 36 36 36 38 40 39 36 33 30 26 24
36 38 42 45 45 48 47 40 34 28 25 24 22 24 23 18 15 16 22 27 28 30 29 27 24 22 25 22 23 31 28 24 28 29 28 30 30 31 33 35 39 43 45 46 48 52 56 57 56 58 62 65 69 72 72 70 69 71 74 75 73 69 66 64 64 70 77 83 86 89 91 93 95 93 88 84 78 72 68 66 59 51 47 43 39 38 37 38 40 41 39 36 33 29 26 24 22
32 37 42 44 43 42 38 31 28 25 25 26 26 26 24 21 19 16 20 30 33 32 29 27 25 23 23 20 22 31 28 26 31 31 30 31 30 32 34 35 39 44 46 47 47 50 54 54 55 58 61 64 67 70 71 71 71 73 74 74 70 64 61 61 64 70 75 81 88 93 95 95 94 89 84 80 74 70 69 64 54 48 44 42 41 41 41 42 42 39 36 33 30 26 24 23 22
29 37 42 43 42 36 30 26 26 27 29 30 28 24 20 21 22 17 18 29 37 35 28 28 28 24 22 22 24 29 28 29 33 33 31 29 28 32 34 34 39 45 46 45 46 49 51 53 55 58 61 62 62 63 67 69 70 72 72 69 64 60 61 63 66 70 77 84 90 93 95 94 91 86 83 77 72 70 64 55 49 46 45 44 43 43 43 43 39 36 33 30 27 25 24 22 23
30 39 42 41 40 36 33 32 31 33 37 35 27 21 19 21 25 22 19 26 37 36 29 30 29 23 22 25 25 26 29 33 35 34 31 28 29 31 33 35 41 44 44 43 45 47 50 53 56 58 60 59 58 59 62 64 68 70 69 65 61 61 64 65 67 71 78 86 91 93 95 92 86 84 80 74 70 65 57 51 48 47 46 45 44 43 42 39 36 33 31 28 26 24 23 23 25
34 39 39 38 38 37 35 34 35 37 38 35 27 22 23 23 25 26 21 24 35 35 30 33 32 23 23 27 27 28 32 37 39 35 29 27 30 32 34 39 42 42 42 43 45 46 49 53 55 55 54 55 58 60 61 65 69 68 65 62 61 61 63 65 71 78 83 87 90 93 93 88 83 80 76 71 67 60 53 50 48 46 47 46 44 42 39 36 34 32 29 27 25 24 23 25 27
39 39 36 38 40 39 37 37 40 40 35 34 31 25 25 27 27 28 25 25 32 33 29 31 32 26 23 26 30 31 32 37 41 37 28 27 30 32 35 41 42 41 41 43 44 45 48 51 52 50 49 54 60 62 64 68 70 68 64 63 63 61 62 67 74 82 88 89 90 90 86 82 80 77 72 67 62 56 50 48 48 49 48 46 43 40 37 35 33 31 28 26 24 24 25 27 27
42 40 36 38 40 39 38 36 36 36 32 34 36 29 25 28 30 29 29 29 31 32 27 26 30 29 25 27 30 29 29 35 42 36 26 27 30 31 34 39 41 41 41 42 44 45 46 48 51 52 51 55 60 64 68 69 68 66 63 63 64 63 67 74 78 82 89 89 87 84 79 77 76 72 68 62 57 52 49 49 51 51 48 45 41 39 36 34 32 29 28 26 24 24 27 28 25
40 42 37 37 40 39 38 36 33 32 33 36 41 36 25 26 32 33 31 29 29 30 26 24 27 27 27 31 31 29 28 33 40 36 26 26 29 30 33 38 41 42 42 43 44 45 45 48 53 55 56 60 62 64 68 67 65 64 62 64 68 71 76 81 81 84 87 85 81 78 75 73 71 68 64 59 52 50 51 53 54 50 46 43 41 39 37 34 31 29 28 26 25 27 28 27 23
36 40 37 37 40 40 41 41 35 32 35 36 39 38 29 26 31 33 30 28 28 31 30 27 25 26 30 35 36 35 33 35 40 36 26 26 28 29 32 36 39 41 41 44 46 45 46 50 55 56 59 63 65 66 69 68 66 62 62 69 75 79 81 82 82 84 82 78 76 74 71 68 66 64 62 56 52 53 55 54 51 47 44 42 40 39 37 34 31 30 29 27 27 29 29 24 21